Regional Weather Roundup
Issued by NWS Portland, ME

Home | Current Version | Previous Version | Text Only | Print | Product List | Glossary On
Versions: 1 2 3 4 5 6 7 8 9 10 11 12 13 14 15 16 17 18 19 20 21 22 23 24 25 26 27 28 29 30 31 32 33 34 35 36 37 38 39 40 41 42 43 44 45 46 47 48 49 50
000
ASUS41 KGYX 212010
RWRGYX
WEATHER ROUNDUP FOR MAINE AND NEW HAMPSHIRE
NATIONAL WEATHER SERVICE GRAY ME
400 PM EDT MON MAY 21 2018

MEZ002-005-006-010-012-015-018-020-021-024-026-027-029-212100-
MAINE

CITY           SKY/WX    TMP DP  RH WIND       PRES   REMARKS
PORTLAND       FAIR      77  39  25 SW12      30.00F
SANFORD        FAIR      77  39  25 W16G22    30.03F
BAR HARBOR     FAIR      67  45  45 S16G25    29.96F
WISCASSET      FAIR      72  42  34 SW14G22   30.01F
ROCKLAND       FAIR      66  44  45 SW22G31   29.98F
FRYEBURG       FAIR      78  37  22 W10G20    30.01F
LEWISTONAUBURN FAIR      77  36  22 NW12G22   29.99F
AUGUSTA        FAIR      77  35  21 W8G23     29.98F
WATERVILLE     FAIR      77  39  25 W9G20     29.95F
BANGOR         FAIR      77  35  21 W15G24    29.94F
GREENVILLE       N/A     68  37  32 NW16G29   29.95S
MILLINOCKET    PTSUNNY   74  38  27 NW14G30   29.93F
HOULTON        PTSUNNY   71  36  27 NW10G21   29.89S
PRESQUE ISLE   FAIR      66  31  27 NW17G30   29.94R
FRENCHVILLE    FAIR      60  18  19 NW18G36   29.97R
CARIBOU        FAIR      65  23  20 N21G30    29.94R
$$

NHZ002-005-008-009-011-012-014-212100-
NEW HAMPSHIRE

CITY           SKY/WX    TMP DP  RH WIND       PRES   REMARKS
PORTSMOUTH     MOSUNNY   78  36  22 W14G22    30.03F
ROCHESTER      FAIR      77  39  25 VRB7      30.03F
NASHUA         FAIR      78  39  24 NW9G21    30.07F
MANCHESTER     FAIR      81  36  19 W9        30.05F
CONCORD        FAIR      79  39  23 NW12      30.05F
LACONIA        FAIR      76  37  24 SW16G24   30.04F
PLYMOUTH       FAIR      76  34  21 NW15G25   30.04F
BERLIN         FAIR      75  37  25 NW12G24   30.02F
WHITEFIELD     FAIR      74  39  28 W15G22    30.04F
JAFFREY        FAIR      76  36  23 NW12G18   30.11F
KEENE          FAIR      79  42  26 W9        30.09F
LEBANON        FAIR      78  39  24 NW6       30.06F
MT WASHINGTON  PTSUNNY   46  32  57 W51G62      N/A
$$

VTZ005-007-008-212100-
VERMONT

CITY           SKY/WX    TMP DP  RH WIND       PRES   REMARKS
ST JOHNSBURY     N/A     75  39  27 MISG      30.03F
MONTPELIER     FAIR      72  42  34 W12G21    30.11F
BURLINGTON     FAIR      79  39  23 N10G18    30.05F
$$

MAZ007-012-024-CTZ003-RIZ002-NYZ038-NYZ072-212100-
SOUTHERN NEW ENGLAND AND NY

CITY           SKY/WX    TMP DP  RH WIND       PRES   REMARKS
BOSTON         FAIR      71  48  43 SE12      30.08F
WORCESTER      FAIR      73  41  31 NW12G21   30.12F
NANTUCKET      FAIR      64  44  48 S8        30.14F
PROVIDENCE     PTSUNNY   70  46  42 S17       30.12F
HARTFORD       FAIR      78  44  29 S7        30.10F
ALBANY         FAIR      77  42  28 VRB3      30.12F
NEW YORK CITY  FAIR      75  47  36 S12G18    30.13F
$$

ANZ081-ANZ082-ANZ150-NHZ014-MEZ023>029-212100-
COASTAL MARINE OBSERVATIONS

STATION/POSITION TIME  TEMP    WIND        PRES    WAVE
                       AIR SEA DIR/SP/G            HT/PER
                 (UTC) (F)     (DEG/KT/KT) (MB)    (FT/S)
MOUNT DESERT ROC 2000   53     210/ 21/ 22 1016.1F
MATINICUS ROCK   2000   55     220/ 25/ 27 1015.7F
ISLE OF SHOALS   2000   61     170/ 21/ 22 1017.0F
JEFFREYS LEDGE   1936      54                N/A     2/ 7
CASHES LEDGE BUO 1950   58 50              1017.3F   3/ 8
$$

.............KEY..............
   WCI - WIND CHILL
   TC  - TEMPERATURE IN CELSIUS
   VSB - VISIBILITY IN MILES
   HX  - HEAT INDEX
   FAIR- INDICATES FEW OR NO CLOUDS BELOW 12,000 FT, WITH NO
         SIGNIFICANT WEATHER AND/OR OBSTRUCTIONS TO VISIBILITY.





USA.gov is the U.S. government's official web portal to all federal, state and local government web resources and services.